Flag for Germany Weather past 2 weeks in Husum, Schleswig-Holstein, Germany

Now
81 °F

Warm.


Feels Like: 81 °F
Forecast: 65 / 76 °F
Wind: 16 mph from East

Location: Schleswig-Jagel

Current Time: Jul 25, 2014 at 2:02:16 PM

Latest Report: Jul 25, 2014 at 1:20 PM


Visibility: 4 mi

Pressure: 30.04 "Hg

Humidity: 42%

Dew point: 55 °F

Location of HusumLocation

Historic Weather in Husum — Graph

°F

Husum temperature yesterday

Maximum temperature yesterday: 81 °F (at 12:20 PM)
Minimum temperature yesterday: 61 °F (at 2:20 AM)
Average temperature yesterday: 71 °F

Past Weeks' High & Low Weather Summary

 TemperatureHumidityPressure
High86 °F (Jul 19, 1:20 PM)100% (Jul 16, 12:20 AM)30.21 "Hg (Jul 16, 12:20 AM)
Low48 °F (Jul 17, 5:20 AM)31% (Jul 12, 4:20 PM)29.59 "Hg (Jul 14, 2:20 AM)
Average68 °F69%30.01 "Hg
* Reported Jul 10 12:20 PM — Jul 25 12:20 PM, Husum, Weather by CustomWeather, © 2014

Note: Actual official high and low records may vary slightly from our data, if they occured in-between our weather recording intervals... More about our weather records

Advertising

Husum weather history for previous 24 hours

 ConditionsComfort  
Time TempWeatherWind HumidityBarometerVisibility
12:20 PM
Jul 25
79 °FPartly sunny.18 mph51%30.04 "HgN/A
11:20 AM75 °FPartly sunny.15 mph61%30.04 "HgN/A
10:20 AM73 °FBroken clouds.14 mph69%30.04 "HgN/A
9:20 AM73 °FBroken clouds.16 mph65%30.04 "HgN/A
8:20 AM72 °FPartly sunny.12 mph69%30.07 "HgN/A
7:20 AM68 °FBroken clouds.8 mph78%30.07 "HgN/A
6:20 AM66 °FPartly sunny.7 mph83%30.07 "HgN/A
5:20 AM64 °FPassing clouds.5 mph83%30.07 "HgN/A
4:20 AM63 °FMild.6 mph83%30.07 "Hg4 mi
3:20 AM64 °FMild.6 mph83%30.07 "Hg4 mi
2:20 AM63 °FMild.6 mph83%30.09 "Hg4 mi
1:20 AM64 °FMild.7 mph78%30.09 "Hg4 mi
12:20 AM64 °FMild.3 mph78%30.09 "Hg4 mi
11:20 PM
Jul 24
64 °FMild.7 mph73%30.09 "Hg4 mi
10:20 PM66 °FMild.8 mph68%30.09 "Hg4 mi
9:20 PM72 °FMild.6 mph61%30.09 "Hg4 mi
8:20 PM73 °FMild.10 mph53%30.07 "Hg4 mi
7:20 PM77 °FWarm.9 mph42%30.07 "Hg4 mi
6:20 PM79 °FPleasantly warm.10 mph39%30.07 "Hg4 mi
5:20 PM79 °FPartly sunny.14 mph37%30.09 "HgN/A
4:20 PM81 °FPartly sunny.15 mph37%30.09 "HgN/A
3:20 PM79 °FPartly sunny.16 mph37%30.09 "HgN/A
2:20 PM81 °FPartly sunny.15 mph37%30.09 "HgN/A
Weather by CustomWeather, © 2014

See weather overviewHow to use our weather pages